Location: Newark
(35.9031°N, 139.7175°E)
Time: 18:43:07
(UTC+00:00)

deb Explorer IX - All Passes

Search period start: 06 June 2020 00:00
Search period end: 16 June 2020 00:00
Orbit: 546 x 1100 km, 38.8° (Epoch: 06 June)

Date Brightness Start Highest point End Pass type
(mag) Time Alt. Az. Time Alt. Az. Time Alt. Az.
06 Jun - 04:54:44 10° S 04:57:38 18° SE 05:00:25 10° ESE daylight
06 Jun - 06:39:51 10° WSW 06:43:59 72° SSE 06:48:05 10° ENE daylight
06 Jun - 08:26:47 10° W 08:30:49 58° N 08:35:07 10° ENE daylight
06 Jun - 10:13:34 10° WNW 10:17:50 80° NNE 10:22:37 10° ESE visible
06 Jun - 12:00:22 10° W 12:04:33 35° SSW 12:09:19 10° SE visible
07 Jun - 04:32:00 10° S 04:35:03 18° SSE 04:37:58 10° ESE daylight
07 Jun - 06:17:15 10° WSW 06:21:26 73° SSE 06:25:32 10° ENE daylight
07 Jun - 08:04:15 10° W 08:08:17 57° N 08:12:29 10° ENE daylight
07 Jun - 09:51:04 10° WNW 09:55:16 81° NNE 09:59:54 10° ESE daylight
07 Jun - 11:37:54 10° W 11:41:57 34° SSW 11:46:30 10° SE visible
08 Jun - 04:09:14 10° SSW 04:12:27 19° SSE 04:15:30 10° E daylight
08 Jun - 05:54:37 10° WSW 05:58:54 74° SSE 06:02:59 10° ENE daylight
08 Jun - 07:41:42 10° W 07:45:45 57° N 07:49:52 10° ENE daylight
08 Jun - 09:28:34 10° WNW 09:32:42 81° NNE 09:37:13 10° ESE daylight
08 Jun - 11:15:26 10° W 11:19:20 32° SSW 11:23:42 10° SE visible
09 Jun - 03:46:26 10° SSW 03:49:52 20° SSE 03:53:03 10° E daylight
09 Jun - 05:31:59 10° WSW 05:36:21 76° SSE 05:40:26 10° ENE daylight
09 Jun - 07:19:07 10° W 07:23:12 57° N 07:27:17 10° ENE daylight
09 Jun - 09:06:02 10° WNW 09:10:08 82° NNE 09:14:32 10° ESE daylight
09 Jun - 10:52:57 10° W 10:56:45 31° SSW 11:00:55 10° SSE visible
10 Jun - 03:23:37 10° SSW 03:27:16 21° SSE 03:30:36 10° E daylight
10 Jun - 05:09:18 10° WSW 05:13:46 77° SSE 05:17:54 10° ENE daylight
10 Jun - 06:56:31 10° W 07:00:39 57° N 07:04:41 10° ENE daylight
10 Jun - 08:43:29 10° WNW 08:47:35 83° NNE 08:51:53 10° ESE daylight
10 Jun - 10:30:28 10° W 10:34:09 30° SSW 10:38:10 10° SSE visible
11 Jun - 03:00:47 10° SSW 03:04:38 22° SSE 03:08:09 10° E daylight
11 Jun - 04:46:35 10° WSW 04:51:12 78° SSE 04:55:22 10° ENE daylight
11 Jun - 06:33:54 10° W 06:38:05 57° N 06:42:07 10° ENE daylight
11 Jun - 08:20:55 10° WNW 08:25:01 84° NNE 08:29:14 10° ESE daylight
11 Jun - 10:07:57 10° W 10:11:34 29° SSW 10:15:25 10° SSE daylight
12 Jun - 02:37:56 10° SSW 02:42:00 24° SSE 02:45:41 10° E daylight
12 Jun - 04:23:51 10° WSW 04:28:37 80° SSE 04:32:51 10° ENE daylight
12 Jun - 06:11:14 10° W 06:15:31 57° N 06:19:33 10° ENE daylight
12 Jun - 07:58:19 10° WNW 08:02:27 84° NNE 08:06:37 10° ESE daylight
12 Jun - 09:45:26 10° W 09:48:58 27° SSW 09:52:41 10° SSE daylight
13 Jun - 02:15:02 10° SSW 02:19:22 25° SSE 02:23:13 10° E daylight
13 Jun - 04:01:05 10° WSW 04:06:01 81° SSE 04:10:20 10° ENE daylight
13 Jun - 05:48:33 10° W 05:52:57 57° N 05:57:00 10° ENE daylight
13 Jun - 07:35:43 10° WNW 07:39:54 85° NNE 07:44:00 10° ESE daylight
13 Jun - 09:22:54 10° W 09:26:23 27° SSW 09:29:58 10° SSE daylight
14 Jun - 01:52:09 10° SSW 01:56:42 26° SSE 02:00:44 10° E daylight
14 Jun - 03:38:17 10° WSW 03:43:24 82° SSE 03:47:48 10° ENE daylight
14 Jun - 05:25:51 10° W 05:30:21 58° N 05:34:28 10° ENE daylight
14 Jun - 07:13:04 10° WNW 07:17:18 86° N 07:21:25 10° ESE daylight
14 Jun - 09:00:20 10° W 09:03:46 26° SSW 09:07:17 10° SSE daylight
15 Jun - 01:29:13 10° SSW 01:34:01 28° SSE 01:38:14 10° E daylight
15 Jun - 03:15:29 10° WSW 03:20:45 83° SSE 03:25:16 10° ENE daylight
15 Jun - 05:03:06 10° W 05:07:45 58° N 05:11:56 10° ENE daylight
15 Jun - 06:50:25 10° WNW 06:54:44 87° NNE 06:58:49 10° ESE daylight
15 Jun - 08:37:46 10° W 08:41:10 25° SSW 08:44:36 10° SSE daylight
